Weather History for Dalhart, TX

Change the Weather History Date:

Wednesday, November 21, 2012

  Actual Average Record
Temperature  
Mean Temperature 49 °F 41 °F  
Max Temperature 73 °F 57 °F 78 °F (1966)
Min Temperature 25 °F 26 °F 6 °F (1972)
Degree Days  
Heating Degree Days 16 24  
Month to date heating degree days 308 401  
Since 1 July heating degree days 628 761  
Cooling Degree Days 0 0  
Month to date cooling degree days 0 0  
Year to date cooling degree days 1648 1138  
Moisture  
Dew Point 29 °F    
Average Humidity 43    
Maximum Humidity 63    
Minimum Humidity 22    
Precipitation  
Precipitation 0.00 in 0.01 in 0.44 in (1992)
Month to date precipitation 0.00 0.45  
Year to date precipitation 6.35 16.92  
Snow  
Snow 0.00 in 0.00 in 4.40 in (1992)
Month to date snowfall 0.0 0.7  
Since 1 July snowfall 0.0 1.3  
Since 1 September snowfall 0.0 1.3  
Snow Depth 0.00 in    
Sea Level Pressure  
Sea Level Pressure 30.06 in    
Wind  
Wind Speed 16 mph (SSW)    
Max Wind Speed 35 mph    
Max Gust Speed 40 mph    
Visibility 9 miles    
Events      
T = Trace of Precipitation, MM = Missing Value Source: NWS Daily Summary

Daily Weather History Graph

Daily Weather History Graph

Search for Another Location

Airport:

Trip Planner

Search our weather history database for the weather conditions in past years. The results will help you decide how hot, cold, wet, or windy it might be!

Date:

Astronomy

Nov. 21, 2012 Rise Set
Actual Time 7:33 AM CST 5:38 PM CST
Civil Twilight 7:05 AM CST 6:06 PM CST
Nautical Twilight 6:34 AM CST 6:37 PM CST
Astronomical Twilight 6:03 AM CST 7:08 PM CST
Moon 1:46 PM CST (11/21) 1:06 AM CST (11/21)
Length of Visible Light 11h 00m
Length of Day
10h 05m
First Quarter, 62% of the Moon is Illuminated
Nov 21
First Quarter
Nov 28
Full
Dec 6
Last Quarter
Dec 13
New
Dec 19
First Quarter

Hourly Weather History & Observations

Time (CST) Temp. Windchill Dew Point Humidity Pressure Visibility Wind Dir Wind Speed Gust Speed Precip Events Conditions
12:53 AM 33.1 °F 25.5 °F 16.0 °F 50% 30.16 in 10.0 mi South 9.2 mph - N/A   Clear
1:53 AM 34.0 °F 27.2 °F 17.1 °F 50% 30.14 in 10.0 mi South 8.1 mph - N/A   Clear
2:53 AM 32.0 °F 24.2 °F 16.0 °F 52% 30.14 in 10.0 mi South 9.2 mph - N/A   Clear
3:53 AM 32.0 °F 24.2 °F 17.1 °F 54% 30.13 in 10.0 mi South 9.2 mph - N/A   Clear
4:53 AM 30.9 °F 21.2 °F 15.1 °F 52% 30.14 in 10.0 mi South 12.7 mph - N/A   Clear
5:53 AM 30.9 °F 23.5 °F 16.0 °F 54% 30.15 in 10.0 mi SSW 8.1 mph - N/A   Clear
6:53 AM 26.1 °F 16.8 °F 14.0 °F 60% 30.17 in 10.0 mi SSW 9.2 mph - N/A   Clear
7:53 AM 28.0 °F 20.8 °F 15.1 °F 58% 30.19 in 10.0 mi South 6.9 mph - N/A   Clear
8:53 AM 43.0 °F 37.7 °F 18.0 °F 37% 30.17 in 10.0 mi South 9.2 mph - N/A   Clear
9:53 AM 54.0 °F - 21.0 °F 28% 30.14 in 10.0 mi SSW 11.5 mph - N/A   Clear
10:53 AM 64.9 °F - 25.0 °F 22% 30.11 in 10.0 mi SSW 20.7 mph 28.8 mph N/A   Clear
11:53 AM 68.0 °F - 32.0 °F 26% 30.08 in 8.0 mi SSW 29.9 mph 35.7 mph N/A   Clear
12:38 PM 69.8 °F - 33.8 °F 27% 30.11 in 2.5 mi SSW 32.2 mph 40.3 mph N/A   Haze
12:53 PM 70.0 °F - 33.1 °F 26% 30.04 in 3.0 mi SW 32.2 mph 40.3 mph N/A   Haze
1:53 PM 69.1 °F - 36.0 °F 30% 30.01 in 6.0 mi SSW 26.5 mph 40.3 mph N/A   Haze
2:53 PM 69.1 °F - 37.0 °F 31% 29.98 in 5.0 mi SSW 26.5 mph - N/A   Haze
3:53 PM 69.1 °F - 39.0 °F 33% 29.97 in 7.0 mi SSW 24.2 mph 35.7 mph N/A   Clear
4:53 PM 68.0 °F - 39.9 °F 36% 29.97 in 10.0 mi SW 21.9 mph - N/A   Clear
5:53 PM 64.0 °F - 39.0 °F 40% 29.97 in 10.0 mi SSW 15.0 mph - N/A   Clear
6:53 PM 64.0 °F - 39.9 °F 41% 29.99 in 10.0 mi SSW 18.4 mph - N/A   Clear
7:53 PM 60.1 °F - 41.0 °F 49% 29.99 in 10.0 mi SSW 16.1 mph - N/A   Clear
8:53 PM 57.0 °F - 41.0 °F 55% 29.96 in 10.0 mi SSW 13.8 mph - N/A   Clear
9:53 PM 54.0 °F - 39.9 °F 59% 29.93 in 10.0 mi SSW 13.8 mph - N/A   Clear
10:53 PM 52.0 °F - 39.9 °F 63% 29.90 in 10.0 mi WSW 6.9 mph - N/A   Clear
11:53 PM 52.0 °F - 39.9 °F 63% 29.87 in 10.0 mi SSW 15.0 mph - N/A   Clear